Regional Weather Roundup
Issued by NWS Green Bay, WI

Home | Current Version | Previous Version | Graphics & Text | Print | Product List | Glossary Off
Versions: 1 2 3 4 5 6 7 8 9 10 11 12 13 14 15 16 17 18 19 20 21 22 23 24 25 26 27 28 29 30 31 32 33 34 35 36 37 38 39 40 41 42 43 44 45 46 47 48 49 50

731
ASUS43 KGRB 201611
RWRGRB

NORTH-CENTRAL AND NORTHEAST WISCONSIN REGIONAL WEATHER ROUNDUP
NATIONAL WEATHER SERVICE GREEN BAY WI
1000 AM CST FRI JAN 20 2017

WIZ005-009-010>012-018-019-201700-
NORTH CENTRAL WISCONSIN

CITY           SKY/WX    TMP DP  RH WIND       PRES   REMARKS
IRONWOOD       CLOUDY    36  30  79 E6        29.68F
MANITOWISH WTR CLOUDY    32  32 100 CALM      29.66F FOG
ARBOR VITAE    MIX PCPN  34  33  94 CALM      29.67R
EAGLE RIVER    PTSUNNY   33  32  95 CALM      29.67R FOG
LAND O LAKES   CLOUDY    33  32  95 S3        29.69R
RHINELANDER    LGT RAIN  34  33  96 CALM      29.68R FOG
PHILLIPS       CLOUDY    34  34 100 CALM      29.65F FOG
ANTIGO         CLOUDY    32  32 100 E3        29.68S FOG
TOMAHAWK       DRIZZLE   34  33  96 CALM      29.67F
MERRILL        DRIZZLE   35  35 100 E3          N/A
$$

WIZ013-073-201700-
NORTHEAST WISCONSIN

CITY           SKY/WX    TMP DP  RH WIND       PRES   REMARKS
IRON MOUNTAIN  CLOUDY    32  29  88 SE7       29.71R FOG
MARINETTE      NOT AVBL
OCONTO         CLOUDY    33  33  99 NE5       29.72S
$$

WIZ017-030-035>037-045-201700-
CENTRAL WISCONSIN

CITY           SKY/WX    TMP DP  RH WIND       PRES   REMARKS
MEDFORD        DRIZZLE   34  33  97 E5        29.65S
WAUSAU         CLOUDY    34  33  96 E7        29.66F FOG
MOSINEE        CLOUDY    30  30 100 E6        29.68S FOG
MARSHFIELD     LGT RAIN  34  32  92 E7        29.65S FOG
WISC RAPIDS    LGT RAIN  35  34  96 E7        29.68S
STEVENS POINT  DRIZZLE   32  32 100 E6        29.68S
WAUPACA        CLOUDY    36  35  96 CALM      29.69S FOG
SHAWANO        CLOUDY    34  33  95 CALM      29.71S FOG
CLINTONVILLE   DRIZZLE   32  32 100 NE6       29.70S
WAUTOMA        CLOUDY    34  33  96 NE7       29.68F FOG
$$

WIZ038-039-048-051-201700-
FOX VALLEY

CITY           SKY/WX    TMP DP  RH WIND       PRES   REMARKS
NWS GREEN BAY  FOG       35  35 100 NE13      29.70S VSB 1/2
APPLETON       FOG       34  34 100 NE7       29.68R VSB 1
OSHKOSH        LGT RAIN  34  33  96 NE8       29.68R FOG
FOND DU LAC    LGT RAIN  36  33  89 NE6       29.68R FOG
$$

WIZ022-050-052-201700-
EAST CENTRAL WISCONSIN

CITY           SKY/WX    TMP DP  RH WIND       PRES   REMARKS
EPHRAIM        FOG       32  32 100 NE5       29.71F VSB<1/4
WASHINGTON ISL FOG       33  33 100 NE8       29.73F VSB<1/4
STURGEON BAY   LGT RAIN  34  33  96 N6        29.72F VSB 1/4
MANITOWOC      LGT RAIN  36  35  96 VRB5      29.70S FOG
SHEBOYGAN      FOG       36  35  96 NE9       29.69R VSB 1/2
$$

LMZ563-521-522-541>543-201700-
LAKESHORE

STATION/POSITION TIME  TEMP    WIND        PRES    VSBY  WAVE
                       AIR SEA DIR/SP/G                  HT/PER
                 (UTC) (F)     (DEG/KT/KT) (MB)    (MI)  (FT/S)
SHEBOYGAN LKSHOR 1600   35      10/  7/  8 1005.7R
KEWAUNEE LKSHORE 1548   35      20/  9/ 11 1005.5F
NORTHPORT PIER   1540   34      40/  5/  7 1007.1S
SISTER BAY LKSHO 1550   35        CALM       N/A
$$




USA.gov is the U.S. government's official web portal to all federal, state and local government web resources and services.